Stations météo

Publicité
Lyon/Satolas, France (7481): Température de l'air & dewpoint: 14.08.2019 14:00:00 - 20.08.2019 14:00:00 (CEST)Lyon/Satolas, France (7481): Température de l'air 5cm: 14.08.2019 14:00:00 - 20.08.2019 14:00:00 (CEST)Lyon/Satolas, France (7481): Température de l'air -20cm & Température de l'air -100cm: 14.08.2019 14:00:00 - 20.08.2019 14:00:00 (CEST)Lyon/Satolas, France (7481): Vitesse du vent & gusts: 14.08.2019 14:00:00 - 20.08.2019 14:00:00 (CEST)Lyon/Satolas, France (7481): Direction du vent: 14.08.2019 14:00:00 - 20.08.2019 14:00:00 (CEST)Lyon/Satolas, France (7481): reduced air pressure: 14.08.2019 14:00:00 - 20.08.2019 14:00:00 (CEST)Lyon/Satolas, France (7481): visibility: 14.08.2019 14:00:00 - 20.08.2019 14:00:00 (CEST)Lyon/Satolas, France (7481): Quantités de précipitations: 14.08.2019 14:00:00 - 20.08.2019 14:00:00 (CEST)
Date & Time tt [°C] td [°C] tt 5cm [°C] tt -20cm [°C] tt -100cm [°C] ff [km/h] ff [knt] fx [km/h] fx [knt] dd ppp [hPa] vv [km] rr [mm]
20.08.2019 14:00:00 - - - - - - - - - - - - -
20.08.2019 13:00:00 16,2 15,6 16,1 20,8 22,5 11 6 17 9 W 1023,4 9 1,8
20.08.2019 12:00:00 15,9 15,3 15,6 20,8 22,5 12 6 21 12 W 1023,4 15 1,0
20.08.2019 11:00:00 15,8 15,3 15,7 20,9 22,5 13 7 23 12 WNW 1022,7 7 1,4
20.08.2019 10:00:00 15,7 15,2 15,5 21,0 22,5 10 5 13 7 NNW 1021,9 5 1,8
20.08.2019 09:00:00 15,6 15,0 15,4 21,1 22,5 5 3 14 8 W 1022,1 8 1,2
20.08.2019 08:00:00 15,6 14,8 15,2 21,3 22,5 9 5 26 14 WNW 1021,5 8 1,4
20.08.2019 07:00:00 15,9 14,8 15,3 21,4 22,6 4 2 17 9 WNW 1021,3 9 1,0
20.08.2019 06:00:00 16,5 15,9 15,7 21,5 22,5 6 3 21 11 WNW 1020,0 16 0,6
20.08.2019 05:00:00 16,8 15,0 15,9 21,6 22,6 5 3 10 5 SW 1020,4 15 0,2
20.08.2019 04:00:00 16,8 14,6 16,3 21,7 22,5 6 3 10 5 SSW 1020,8 30 0,0
20.08.2019 03:00:00 16,8 14,1 15,5 21,9 22,6 2 1 8 5 W 1020,5 30 0,0
20.08.2019 02:00:00 17,0 14,6 16,3 22,0 22,6 6 3 9 5 ENE 1020,6 3,0 0,0
20.08.2019 01:00:00 17,1 14,9 16,4 22,2 22,6 3 1 13 7 N 1021,3 10 0,0
20.08.2019 00:00:00 17,5 15,3 16,5 22,3 22,6 5 3 13 7 NE 1020,9 10 0,2
19.08.2019 23:00:00 17,7 15,1 17,5 22,4 22,6 3 2 22 12 W 1021,2 50 0,0
19.08.2019 22:00:00 17,8 14,9 17,6 22,5 22,5 5 3 9 5 SW 1020,9 20 0,0
19.08.2019 21:00:00 17,8 13,9 17,7 22,7 22,6 5 3 7 4 W 1020,5 20 0,0
19.08.2019 20:00:00 17,9 14,4 18,0 22,8 22,6 4 2 12 6 WSW 1020,5 20 0,0
19.08.2019 19:00:00 17,9 14,4 18,5 22,9 22,6 5 3 15 8 W 1020,1 20 0,0
19.08.2019 18:00:00 17,9 14,6 17,9 23,0 22,6 8 4 16 9 NNW 1020,2 30 0,0
19.08.2019 17:00:00 17,3 15,1 16,5 23,1 22,5 9 5 21 12 N 1020,4 30 2,6
19.08.2019 16:00:00 17,7 14,4 18,9 23,1 22,5 16 9 28 15 N 1020,1 43 0,0
19.08.2019 15:00:00 17,8 14,9 19,5 23,2 22,5 18 10 28 15 N 1020,2 30 0,0
19.08.2019 14:00:00 17,5 14,4 18,8 23,3 22,5 21 12 29 16 N 1019,8 30 0,0
19.08.2019 13:00:00 17,4 14,7 18,4 23,4 22,5 19 10 31 17 N 1019,6 30 0,0
19.08.2019 12:00:00 18,1 16,1 18,1 23,5 22,5 18 10 25 13 N 1019,1 30 0,0
19.08.2019 11:00:00 17,9 16,4 18,0 23,6 22,5 17 9 26 14 N 1018,7 15 0,0
19.08.2019 10:00:00 18,3 16,5 19,2 23,8 22,5 20 11 29 15 N 1017,8 20 0,0
19.08.2019 09:00:00 18,6 16,9 18,4 23,9 22,5 18 10 28 15 N 1017,3 30 0,0
19.08.2019 08:00:00 18,7 17,5 18,4 24,1 22,4 14 8 23 13 NE 1017,5 20 0,2
19.08.2019 07:00:00 18,6 17,9 18,2 24,3 22,4 5 3 12 6 NNE 1016,9 28 0,4
19.08.2019 06:00:00 18,7 17,9 18,2 24,5 22,4 7 4 23 13 W 1017,3 10 1,8
19.08.2019 05:00:00 19,1 17,9 18,6 24,8 22,4 7 4 22 12 N 1016,5 10 0,2
19.08.2019 04:00:00 19,8 19,3 19,4 25,0 22,4 9 5 22 12 NE 1015,9 10 0,0
19.08.2019 03:00:00 19,9 19,4 19,5 25,2 22,4 16 9 24 13 E 1015,3 4,0 3,0
19.08.2019 02:00:00 20,1 19,3 18,6 25,5 22,4 2 1 6 3 NNW 1015,8 25 0,0
19.08.2019 01:00:00 20,5 18,8 19,4 25,8 22,4 3 2 12 6 ENE 1014,6 25 0,0
19.08.2019 00:00:00 20,5 19,2 19,8 26,1 22,4 7 4 38 21 ENE 1015,1 15 0,8
18.08.2019 23:00:00 21,4 19,3 20,2 26,3 22,4 7 4 21 11 SW 1015,1 10 0,2
18.08.2019 22:00:00 22,4 18,6 20,9 26,6 22,4 18 10 42 23 N 1013,4 10 0,8
18.08.2019 21:00:00 27,3 16,6 24,0 26,7 22,4 29 16 54 29 SW 1010,4 30 0,0
18.08.2019 20:00:00 29,0 15,5 28,7 26,8 22,4 26 14 52 28 SSW 1009,2 30 0,0
18.08.2019 19:00:00 29,9 16,3 30,0 26,7 22,4 31 17 58 31 SSW 1009,1 30 0,0
18.08.2019 18:00:00 30,7 17,0 32,6 26,4 22,4 28 15 57 31 S 1009,2 10 0,0
18.08.2019 17:00:00 30,9 17,2 34,6 26,0 22,3 36 19 55 30 S 1009,6 40 0,0
18.08.2019 16:00:00 30,8 17,5 34,2 25,5 22,3 39 21 57 31 SSW 1009,6 13 0,0
18.08.2019 15:00:00 29,9 17,4 33,7 25,0 22,3 38 21 65 35 S 1010,0 30 0,0
18.08.2019 14:00:00 29,6 17,8 32,3 24,5 22,3 41 22 85 46 SSW 1010,2 30 0,0
18.08.2019 13:00:00 28,6 16,8 31,1 24,1 22,3 52 28 96 52 SSW 1010,2 30 0,0
18.08.2019 12:00:00 27,7 15,7 29,0 23,8 22,3 53 29 91 49 S 1009,0 40 0,0
18.08.2019 11:00:00 27,1 14,5 30,2 23,6 22,3 44 24 71 39 S 1009,3 40 0,0
18.08.2019 10:00:00 25,7 14,8 27,1 23,6 22,3 24 13 51 28 SSE 1010,4 40 0,0
18.08.2019 09:00:00 23,6 15,6 24,6 23,7 22,3 13 7 40 21 SSE 1010,8 30 0,0
18.08.2019 08:00:00 22,7 16,0 21,9 23,9 22,3 16 8 32 17 SE 1010,9 40 0,0
18.08.2019 07:00:00 22,3 15,9 21,5 24,0 22,3 19 10 32 18 SSE 1010,9 40 0,0
18.08.2019 06:00:00 22,5 15,1 21,0 24,2 22,3 15 8 31 17 SE 1011,2 40 0,0
18.08.2019 05:00:00 23,0 15,1 21,7 24,4 22,3 9 5 33 18 SE 1011,6 40 0,0
18.08.2019 04:00:00 23,9 15,9 23,0 24,6 22,3 27 15 54 29 S 1011,3 40 0,0
18.08.2019 03:00:00 24,3 15,2 23,5 24,8 22,3 27 15 48 26 S 1011,7 43 0,0
18.08.2019 02:00:00 24,8 13,0 23,7 25,0 22,3 25 13 45 24 S 1012,1 49 0,0
18.08.2019 01:00:00 25,3 12,8 24,4 25,2 22,3 25 14 48 26 S 1012,2 50 0,0
18.08.2019 00:00:00 26,7 12,7 26,1 25,4 22,3 29 16 48 26 S 1011,9 50 0,0
17.08.2019 23:00:00 27,5 13,8 26,8 25,6 22,3 25 14 44 24 S 1011,6 50 0,0
17.08.2019 22:00:00 28,3 14,5 27,2 25,7 22,3 24 13 38 20 S 1011,2 50 0,0
17.08.2019 21:00:00 29,7 13,5 28,7 25,8 22,3 26 14 39 21 S 1010,7 50 0,0
17.08.2019 20:00:00 31,2 13,0 30,7 25,7 22,3 22 12 35 19 S 1010,4 80 0,0
17.08.2019 19:00:00 32,7 10,7 34,9 25,5 22,3 23 12 39 21 S 1010,3 80 0,0
17.08.2019 18:00:00 32,8 8,9 36,9 25,2 22,3 25 13 40 21 S 1010,9 80 0,0
17.08.2019 17:00:00 33,0 8,4 36,6 24,6 22,3 22 12 37 20 SSW 1011,2 80 0,0
17.08.2019 16:00:00 32,6 8,8 36,5 24,0 22,3 18 10 34 19 SSW 1011,7 80 0,0
17.08.2019 15:00:00 31,3 10,6 34,5 23,4 22,3 21 11 35 19 SSW 1012,3 80 0,0
17.08.2019 14:00:00 29,7 10,8 32,3 22,7 22,3 23 13 40 21 S 1013,2 80 0,0
17.08.2019 13:00:00 28,0 10,7 29,7 22,3 22,3 20 11 35 19 S 1014,0 80 0,0
17.08.2019 12:00:00 26,6 10,7 29,1 22,0 22,3 22 12 37 20 SSW 1014,5 80 0,0
17.08.2019 11:00:00 24,8 11,0 26,0 21,7 22,3 11 6 25 14 SSE 1014,9 80 0,0
17.08.2019 10:00:00 22,1 12,6 22,5 21,6 22,3 9 5 15 8 S 1015,4 80 0,0
17.08.2019 09:00:00 18,6 12,6 17,6 21,7 22,3 2 1 12 6 N 1015,7 80 0,0
17.08.2019 08:00:00 16,9 12,4 15,0 21,8 22,3 8 5 16 9 SSE 1015,5 80 0,0
17.08.2019 07:00:00 16,6 12,5 15,0 22,0 22,3 2 1 13 7 SSE 1015,5 60 0,0
17.08.2019 06:00:00 16,8 12,3 14,3 22,2 22,3 2 1 14 7 SE 1015,3 60 0,0
17.08.2019 05:00:00 16,4 12,6 15,4 22,5 22,3 12 7 19 10 SE 1015,3 60 0,0
17.08.2019 04:00:00 17,9 12,3 14,6 22,7 22,3 13 7 17 9 SE 1015,2 80 0,0
17.08.2019 03:00:00 18,2 12,6 16,5 23,0 22,3 0 0 13 7 N 1015,3 80 0,0
17.08.2019 02:00:00 18,6 12,6 16,7 23,3 22,3 4 2 13 7 SSE 1015,3 80 0,0
17.08.2019 01:00:00 19,4 12,4 18,1 23,6 22,3 10 5 22 12 SE 1015,4 80 0,0
17.08.2019 00:00:00 20,1 12,6 18,9 23,9 22,3 17 9 21 11 SE 1015,4 80 0,0
16.08.2019 23:00:00 21,1 12,8 19,2 24,2 22,3 16 9 32 18 SE 1015,5 80 0,0
16.08.2019 22:00:00 21,5 12,3 18,7 24,4 22,4 8 5 15 8 ESE 1015,5 80 0,0
16.08.2019 21:00:00 22,9 12,2 20,2 24,7 22,4 5 3 11 6 E 1015,2 80 0,0
16.08.2019 20:00:00 24,6 10,1 24,3 24,7 22,3 4 2 12 7 E 1015,0 70 0,0
16.08.2019 19:00:00 25,1 10,9 26,3 24,6 22,4 7 4 15 8 ESE 1015,0 40 0,0
16.08.2019 18:00:00 25,3 10,3 29,5 24,1 22,4 5 3 15 8 N 1015,4 40 0,0
16.08.2019 17:00:00 24,8 11,0 30,1 23,6 22,4 7 4 26 14 N 1016,3 40 0,0
16.08.2019 16:00:00 24,6 11,9 29,2 23,0 22,4 9 5 24 13 NE 1016,8 40 0,0
16.08.2019 15:00:00 23,8 11,1 29,1 22,4 22,4 7 4 26 14 N 1017,2 40 0,0
16.08.2019 14:00:00 23,5 11,9 28,7 21,8 22,4 11 6 34 18 NW 1017,7 40 0,0
16.08.2019 13:00:00 22,7 12,0 28,3 21,2 22,4 5 3 18 10 WNW 1018,0 40 0,0
16.08.2019 12:00:00 21,8 12,1 27,1 20,7 22,4 8 4 19 11 NNW 1018,5 50 0,0
16.08.2019 11:00:00 20,0 12,2 25,7 20,5 22,4 8 4 20 11 NNE 1019,1 50 0,0
16.08.2019 10:00:00 18,7 12,9 21,6 20,4 22,4 8 5 20 11 N 1019,7 50 0,0
16.08.2019 09:00:00 17,4 11,9 19,9 20,5 22,4 9 5 18 10 N 1019,9 50 0,0
16.08.2019 08:00:00 15,0 11,9 12,0 20,6 22,5 3 1 7 4 NW 1020,6 50 0,0
16.08.2019 07:00:00 13,3 11,4 10,8 20,9 22,4 3 2 10 5 N 1020,2 50 0,0
16.08.2019 06:00:00 13,4 11,3 10,0 21,2 22,5 7 4 22 12 WNW 1020,3 50 0,0
16.08.2019 05:00:00 14,1 11,3 10,7 21,4 22,5 5 3 8 4 W 1020,6 50 0,0
16.08.2019 04:00:00 15,4 11,4 11,1 21,7 22,5 4 2 13 7 SSW 1020,9 50 0,0
16.08.2019 03:00:00 14,8 11,4 11,4 21,9 22,5 2 1 15 8 SSE 1021,2 50 0,0
16.08.2019 02:00:00 15,8 11,6 12,6 22,2 22,5 5 3 9 5 NNW 1021,0 50 0,0
16.08.2019 01:00:00 16,5 11,4 13,1 22,5 22,5 5 3 9 5 NW 1021,1 60 0,0
16.08.2019 00:00:00 17,1 11,8 13,0 22,7 22,5 6 4 13 7 W 1021,2 60 0,0
15.08.2019 23:00:00 18,4 11,7 16,2 23,0 22,5 9 5 16 9 N 1020,7 60 0,0
15.08.2019 22:00:00 19,9 11,6 17,2 23,2 22,5 9 5 13 7 NNE 1020,2 60 0,0
15.08.2019 21:00:00 20,5 11,4 18,7 23,4 22,5 8 4 22 12 NNE 1019,6 60 0,0
15.08.2019 20:00:00 22,3 10,4 22,3 23,5 22,5 18 10 38 20 N 1019,0 60 0,0
15.08.2019 19:00:00 23,8 10,5 24,4 23,4 22,5 26 14 43 23 N 1018,3 60 0,0
15.08.2019 18:00:00 24,5 10,4 26,1 23,2 22,6 22 12 38 20 NNW 1017,8 60 0,0
15.08.2019 17:00:00 24,0 12,3 26,0 22,9 22,6 16 8 33 18 N 1017,6 60 0,0
15.08.2019 16:00:00 23,9 13,4 25,1 22,4 22,5 16 9 34 18 NNW 1017,7 60 0,0
15.08.2019 15:00:00 23,0 14,3 25,8 22,0 22,6 17 9 29 16 NNW 1018,0 60 0,0
15.08.2019 14:00:00 22,7 14,3 26,1 21,7 22,6 17 9 29 16 NNW 1018,0 60 0,0
15.08.2019 13:00:00 22,3 13,4 24,4 21,4 22,6 11 6 31 17 NW 1018,0 60 0,0
15.08.2019 12:00:00 21,3 13,2 22,7 21,2 22,6 13 7 25 14 WSW 1018,0 60 0,0
15.08.2019 11:00:00 22,0 12,5 23,8 21,0 22,6 8 4 14 8 W 1017,4 60 0,0
15.08.2019 10:00:00 20,2 12,4 19,6 20,9 22,6 4 2 18 10 S 1017,3 60 0,0
15.08.2019 09:00:00 18,5 11,8 17,8 21,0 22,6 17 9 24 13 SE 1017,3 60 0,0
15.08.2019 08:00:00 17,2 11,7 16,1 21,2 22,6 13 7 20 11 SE 1017,3 60 0,0
15.08.2019 07:00:00 16,5 11,0 15,4 21,3 22,6 13 7 22 12 SSE 1017,2 60 0,0
15.08.2019 06:00:00 16,2 11,1 15,7 21,5 22,6 14 8 22 12 SE 1016,9 60 0,0
15.08.2019 05:00:00 16,7 11,4 15,2 21,7 22,7 11 6 18 10 SE 1017,1 60 0,0
15.08.2019 04:00:00 16,6 11,5 15,4 22,0 22,7 5 3 12 7 S 1017,3 60 0,0
15.08.2019 03:00:00 17,6 11,6 15,9 22,2 22,7 5 3 16 8 SE 1017,5 49 0,0
15.08.2019 02:00:00 17,8 11,6 16,2 22,4 22,7 10 6 14 8 SE 1017,5 60 0,0
15.08.2019 01:00:00 18,5 11,6 15,6 22,7 22,7 8 4 13 7 SSE 1017,7 60 0,0
15.08.2019 00:00:00 18,9 11,5 14,6 23,0 22,7 8 5 14 8 SE 1017,3 60 0,0
14.08.2019 23:00:00 20,0 11,5 15,7 23,3 22,7 5 3 14 8 SSE 1017,2 60 0,0
14.08.2019 22:00:00 21,0 10,8 17,1 23,6 22,7 5 3 15 8 E 1017,1 60 0,0
14.08.2019 21:00:00 22,1 10,6 19,7 23,8 22,8 5 3 17 9 NE 1016,5 60 0,0
14.08.2019 20:00:00 23,2 10,3 25,6 23,9 22,8 9 5 20 11 NNE 1016,2 60 0,0
14.08.2019 19:00:00 23,8 9,4 26,6 23,8 22,8 13 7 32 18 NNW 1016,4 51 0,0
14.08.2019 18:00:00 24,2 10,1 29,8 23,4 22,8 16 9 31 17 NNW 1016,5 60 0,0
14.08.2019 17:00:00 23,9 8,3 30,5 23,0 22,8 15 8 46 25 NNW 1016,8 60 0,0
14.08.2019 16:00:00 23,6 8,1 30,1 22,3 22,8 12 7 31 17 N 1017,1 60 0,0
14.08.2019 15:00:00 23,6 8,4 29,6 21,7 22,9 18 10 31 17 NNW 1017,6 60 0,0
14.08.2019 14:00:00 22,6 9,0 28,9 21,1 22,9 15 8 35 19 N 1018,0 50 0,0

tt = Température de l'air
td = dewpoint
tt 5cm = Température de l'air 5cm
tt -20cm = Température de l'air -20cm
tt -100cm = Température de l'air -100cm
ff = Vitesse du vent
fx = gusts
dd = Direction du vent
ppp = reduced air pressure
vv = visibility
rr = Quantités de précipitations

stations d'obs. à proximité